Weather History for Osceola Municipal, IA

Change the Weather History Date:

Friday, January 11, 2013

  Actual Average (KLWD) Record (KLWD)
Temperature  
Mean Temperature 46 °F 24 °F  
Max Temperature 53 °F 33 °F 53 °F (1980)
Min Temperature 39 °F 15 °F -14 °F (1977)
Degree Days  
Heating Degree Days 19 41  
Month to date heating degree days 451  
Since 1 July heating degree days 2880  
Cooling Degree Days 0 0  
Month to date cooling degree days 0  
Year to date cooling degree days 0  
Moisture  
Dew Point 44 °F    
Average Humidity 85    
Maximum Humidity 95    
Minimum Humidity 70    
Precipitation  
Precipitation 0.01 in 0.01 in 0.23 in (1963)
Month to date precipitation 0.22  
Sea Level Pressure  
Sea Level Pressure 29.59 in    
Wind  
Wind Speed 10 mph (South)    
Max Wind Speed 24 mph    
Max Gust Speed 31 mph    
Visibility 6 miles    
Events Fog , Rain    
T = Trace of Precipitation, MM = Missing Value Source: NWS Daily Summary

Daily Weather History Graph

Daily Weather History Graph

Search for Another Location

Airport:

Trip Planner

Search our weather history database for the weather conditions in past years. The results will help you decide how hot, cold, wet, or windy it might be!

Date:

Astronomy

Jan. 11, 2013 Rise Set
Actual Time 7:38 AM CST 5:07 PM CST
Civil Twilight 7:08 AM CST 5:37 PM CST
Nautical Twilight 6:34 AM CST 6:11 PM CST
Astronomical Twilight 6:01 AM CST 6:44 PM CST
Moon 7:12 AM CST (1/11) 5:26 PM CST (1/11)
Length of Visible Light 10h 29m
Length of Day
9h 28m
Waning Crescent, 0% of the Moon is Illuminated
Jan 11
Waning Crescent
Jan 11
New
Jan 18
First Quarter
Jan 26
Full
Feb 3
Last Quarter

Hourly Weather History & Observations

Time (CST) Temp. Windchill Dew Point Humidity Pressure Visibility Wind Dir Wind Speed Gust Speed Precip Events Conditions
12:15 AM 40.6 °F - 39.2 °F 95% 29.73 in 0.5 mi Calm Calm - N/A   Drizzle
12:35 AM 39.9 °F - 38.5 °F 95% 29.71 in 0.5 mi Calm Calm - 0.01 in   Drizzle
12:55 AM 40.3 °F - 38.8 °F 95% 29.71 in 0.5 mi Calm Calm - 0.01 in Rain Light Rain
1:15 AM 40.3 °F 37.1 °F 39.0 °F 95% 29.70 in 0.5 mi SSW 4.6 mph - N/A   Light Drizzle
1:35 AM 41.0 °F 37.1 °F 39.4 °F 94% 29.70 in 0.8 mi SW 5.8 mph - N/A   Overcast
1:55 AM 41.2 °F 38.2 °F 39.7 °F 95% 29.71 in 1.2 mi WSW 4.6 mph - N/A   Overcast
2:15 AM 41.0 °F 39.0 °F 39.6 °F 95% 29.71 in 1.0 mi SW 3.5 mph - N/A   Overcast
2:35 AM 40.5 °F 37.3 °F 39.2 °F 95% 29.72 in 0.8 mi South 4.6 mph - N/A   Overcast
2:55 AM 41.5 °F 37.8 °F 40.1 °F 95% 29.70 in 1.8 mi SSW 5.8 mph - N/A   Overcast
3:15 AM 41.9 °F 40.0 °F 40.5 °F 95% 29.69 in 0.5 mi South 3.5 mph - N/A Fog Fog
3:35 AM 41.7 °F 38.8 °F 40.1 °F 94% 29.69 in 0.2 mi South 4.6 mph - N/A Fog Fog
3:55 AM 41.9 °F 38.2 °F 40.3 °F 94% 29.69 in 0.5 mi SSW 5.8 mph - N/A Fog Fog
4:15 AM 41.5 °F 38.6 °F 40.1 °F 95% 29.68 in 0.5 mi South 4.6 mph - N/A Fog Fog
4:35 AM 41.4 °F 37.6 °F 40.1 °F 95% 29.66 in 0.2 mi SE 5.8 mph - N/A Fog Fog
4:55 AM 41.0 °F 35.8 °F 39.6 °F 95% 29.66 in 0.2 mi SSE 8.1 mph - N/A Fog Fog
5:15 AM 41.9 °F 35.9 °F 40.5 °F 95% 29.66 in 0.5 mi SSE 10.4 mph - N/A Fog Fog
5:55 AM 43.0 °F 36.8 °F 41.7 °F 95% 29.66 in 0.5 mi South 11.5 mph - N/A Fog Fog
6:15 AM 43.7 °F 38.1 °F 42.1 °F 94% 29.66 in 1.0 mi South 10.4 mph - N/A   Overcast
6:35 AM 44.1 °F 39.0 °F 42.8 °F 95% 29.66 in 1.5 mi South 9.2 mph - N/A   Overcast
6:55 AM 44.2 °F 39.2 °F 42.8 °F 95% 29.64 in 0.8 mi SSE 9.2 mph - N/A   Overcast
7:15 AM 44.6 °F 39.2 °F 43.2 °F 95% 29.65 in 1.8 mi SSE 10.4 mph - N/A   Overcast
7:35 AM 45.5 °F 40.3 °F 43.9 °F 94% 29.65 in 1.2 mi SSE 10.4 mph 16.1 mph N/A   Overcast
7:55 AM 45.7 °F 40.2 °F 44.4 °F 95% 29.66 in 0.5 mi South 11.5 mph 17.3 mph N/A Fog Fog
8:15 AM 46.0 °F 41.0 °F 44.6 °F 95% 29.65 in 0.8 mi South 10.4 mph - N/A   Overcast
8:35 AM 46.8 °F - 45.5 °F 95% 29.64 in 2.0 mi South 12.7 mph - N/A   Overcast
8:55 AM 47.8 °F - 46.4 °F 95% 29.62 in 4.0 mi South 12.7 mph - N/A   Overcast
9:15 AM 48.2 °F - 46.6 °F 94% 29.62 in 4.0 mi South 11.5 mph 19.6 mph N/A   Overcast
9:35 AM 48.4 °F - 46.8 °F 94% 29.61 in 4.0 mi SSE 15.0 mph 21.9 mph N/A   Overcast
9:55 AM 48.6 °F - 47.1 °F 95% 29.61 in 4.0 mi SSE 18.4 mph 25.3 mph N/A   Overcast
10:15 AM 48.9 °F - 47.3 °F 94% 29.61 in 7.0 mi South 17.3 mph 26.5 mph N/A   Overcast
10:35 AM 48.9 °F - 47.3 °F 94% 29.60 in 7.0 mi South 18.4 mph 24.2 mph N/A   Overcast
10:55 AM 49.1 °F - 47.3 °F 93% 29.59 in 7.0 mi South 17.3 mph 23.0 mph N/A   Overcast
11:15 AM 49.3 °F - 47.7 °F 94% 29.58 in 10.0 mi South 17.3 mph 25.3 mph N/A   Overcast
11:35 AM 49.3 °F - 47.5 °F 94% 29.57 in 10.0 mi South 17.3 mph 26.5 mph N/A   Overcast
11:55 AM 49.5 °F - 47.3 °F 92% 29.55 in 10.0 mi South 17.3 mph 25.3 mph N/A   Overcast
12:15 PM 50.0 °F - 45.9 °F 86% 29.54 in 10.0 mi South 18.4 mph 24.2 mph N/A   Overcast
12:35 PM 50.0 °F - 45.5 °F 85% 29.51 in 10.0 mi South 17.3 mph 21.9 mph N/A   Overcast
12:55 PM 50.0 °F - 45.5 °F 85% 29.51 in 10.0 mi South 17.3 mph 23.0 mph N/A   Mostly Cloudy
1:15 PM 50.0 °F - 45.3 °F 84% 29.52 in 10.0 mi South 16.1 mph 21.9 mph N/A   Scattered Clouds
1:55 PM 50.7 °F - 45.5 °F 82% 29.50 in 10.0 mi South 17.3 mph 24.2 mph N/A   Clear
2:15 PM 50.9 °F - 45.5 °F 82% 29.49 in 10.0 mi South 19.6 mph 24.2 mph N/A   Clear
2:35 PM 51.4 °F - 45.5 °F 80% 29.49 in 10.0 mi South 18.4 mph 24.2 mph N/A   Clear
2:55 PM 51.8 °F - 45.5 °F 79% 29.49 in 7.0 mi South 19.6 mph 26.5 mph N/A   Clear
3:15 PM 52.0 °F - 45.5 °F 79% 29.49 in 7.0 mi South 21.9 mph 31.1 mph N/A   Clear
3:35 PM 52.0 °F - 45.5 °F 79% 29.49 in 7.0 mi South 18.4 mph 27.6 mph N/A   Clear
3:55 PM 52.0 °F - 45.1 °F 77% 29.49 in 7.0 mi South 20.7 mph 25.3 mph N/A   Clear
4:15 PM 51.8 °F - 45.0 °F 77% 29.48 in 7.0 mi South 17.3 mph 23.0 mph N/A   Clear
4:35 PM 51.8 °F - 45.0 °F 77% 29.48 in 7.0 mi South 17.3 mph 25.3 mph N/A   Clear
4:55 PM 51.8 °F - 44.6 °F 76% 29.48 in 7.0 mi South 18.4 mph 24.2 mph N/A   Clear
5:15 PM 52.2 °F - 44.6 °F 75% 29.51 in 10.0 mi South 18.4 mph 26.5 mph N/A   Clear
5:35 PM 52.0 °F - 44.6 °F 76% 29.51 in 10.0 mi South 13.8 mph - N/A   Clear
5:55 PM 52.2 °F - 44.4 °F 75% 29.51 in 10.0 mi South 17.3 mph 25.3 mph N/A   Clear
6:15 PM 53.2 °F - 44.8 °F 73% 29.51 in 7.0 mi South 21.9 mph 29.9 mph N/A   Clear
6:35 PM 53.2 °F - 44.8 °F 73% 29.51 in 10.0 mi South 20.7 mph 27.6 mph N/A   Clear
6:55 PM 52.9 °F - 44.8 °F 74% 29.51 in 10.0 mi South 20.7 mph 29.9 mph N/A   Clear
7:15 PM 52.9 °F - 44.8 °F 74% 29.51 in 7.0 mi South 20.7 mph 26.5 mph N/A   Clear
7:35 PM 52.9 °F - 44.8 °F 74% 29.51 in 10.0 mi South 21.9 mph 27.6 mph N/A   Clear
7:55 PM 53.1 °F - 44.6 °F 73% 29.52 in 10.0 mi South 19.6 mph 29.9 mph N/A   Clear
8:15 PM 53.2 °F - 44.6 °F 72% 29.52 in 10.0 mi South 18.4 mph 25.3 mph N/A   Clear
8:35 PM 53.6 °F - 44.6 °F 72% 29.53 in 10.0 mi South 24.2 mph 29.9 mph N/A   Clear
8:55 PM 53.8 °F - 44.2 °F 70% 29.53 in 10.0 mi South 20.7 mph 28.8 mph N/A   Clear
9:15 PM 53.6 °F - 44.1 °F 70% 29.53 in 10.0 mi South 18.4 mph 27.6 mph N/A   Clear
9:35 PM 53.4 °F - 44.1 °F 71% 29.54 in 10.0 mi South 21.9 mph 26.5 mph N/A   Clear
9:55 PM 53.2 °F - 44.1 °F 71% 29.53 in 10.0 mi South 20.7 mph 27.6 mph N/A   Clear
10:15 PM 53.4 °F - 43.7 °F 70% 29.54 in 7.0 mi South 18.4 mph 28.8 mph N/A   Clear
10:35 PM 53.2 °F - 43.9 °F 71% 29.55 in 10.0 mi South 20.7 mph 28.8 mph N/A   Clear
10:55 PM 53.1 °F - 43.7 °F 71% 29.55 in 7.0 mi South 19.6 mph 26.5 mph N/A   Clear
11:15 PM 52.3 °F - 43.5 °F 72% 29.56 in 10.0 mi SSW 21.9 mph 27.6 mph N/A   Clear
11:35 PM 51.8 °F - 43.0 °F 72% 29.57 in 7.0 mi SSW 17.3 mph 25.3 mph N/A   Scattered Clouds
11:55 PM 51.1 °F - 42.6 °F 73% 29.58 in 10.0 mi SSW 17.3 mph 24.2 mph N/A   Scattered Clouds